Location: Newark
(23.1300°N, 73.6109°E)
Time: 23:04:23
(UTC+00:00)

NOAA 18 - Pass Details

Date: 24 June 2021
Orbit: 840 x 861 km, 99.0° (Epoch: 27 July)

Event Time Altitude Azimuth Distance (km) Brightness Sun altitude
Exits shadow 16:13:22 45° 55° (NE) 1,159 5.7 -27.0°
Drops below altitude 10° 16:18:03 10° 2° (N) 2,493 8.1 -27.8°
Sets 16:20:31 0° 357° (N) 3,433 9.1 -28.2°
